Wind_Speed
25 25 25 25 25 25 25 24 23 24 23 23 22 22 22 23 23 23 24 24 25 25 26 26 25 25 25 25 25 24 23 23 24 24 24 24 24 24 24 24 24 24 24 24 24 23 23 22 22 22 22 22
25 24 25 25 25 24 24 24 24 24 24 23 23 23 23 24 24 24 24 25 26 26 26 26 26 25 25 26 26 25 24 25 25 25 25 25 25 25 25 25 24 24 24 24 24 23 23 23 23 23 23 23
25 25 25 25 25 24 24 24 24 24 23 23 23 24 24 25 25 25 24 25 26 27 27 27 26 26 26 27 27 26 26 26 26 26 26 26 26 26 26 26 25 25 25 25 25 24 24 24 24 24 24 24
26 26 26 26 25 25 25 25 25 24 24 24 24 24 25 26 25 24 24 25 27 28 27 27 27 27 27 27 27 27 27 27 27 27 27 27 27 27 26 26 26 26 26 26 26 26 25 24 24 24 24 24
27 27 27 26 27 27 27 26 25 25 25 25 25 25 26 26 25 25 25 26 27 28 28 28 28 28 28 28 28 29 29 29 29 29 29 28 28 28 27 27 27 27 27 27 27 26 26 26 25 25 25 25
28 28 28 28 28 28 27 27 26 26 26 26 25 26 27 27 26 26 26 26 27 28 28 29 29 29 29 29 29 30 30 30 30 30 30 30 29 29 29 29 28 28 28 28 28 27 27 27 27 27 26 26
29 29 29 29 29 28 28 28 28 28 27 26 26 27 28 27 27 28 27 27 28 28 29 30 30 31 31 30 31 31 32 32 32 32 32 32 31 31 30 30 30 30 29 29 29 28 28 28 28 28 28 27
29 29 29 29 30 30 30 29 30 29 28 27 28 27 27 27 28 28 29 29 29 29 29 30 31 31 32 32 33 33 34 34 34 34 34 33 33 32 32 32 31 31 30 30 29 29 29 29 29 29 29 29
29 30 31 31 31 31 31 31 31 30 29 28 28 27 27 28 29 29 30 30 29 29 29 30 31 32 33 35 35 35 36 36 36 36 35 35 34 34 34 33 33 32 32 31 31 30 29 29 29 29 30 30
31 31 33 33 32 32 32 32 32 31 29 28 27 27 29 30 31 30 31 31 30 30 30 31 32 33 35 36 37 37 37 37 37 37 36 36 35 35 35 34 34 33 33 32 32 32 31 31 30 30 30 30
34 34 34 34 34 34 34 34 33 32 30 29 28 29 31 32 32 32 32 32 32 31 31 32 33 34 36 37 38 38 39 39 38 38 37 37 37 36 36 35 35 35 34 33 33 33 32 32 32 31 31 30
36 36 35 35 36 36 35 35 35 34 33 31 31 32 33 33 34 33 33 33 33 33 32 33 33 34 36 37 38 39 40 40 39 38 37 37 38 38 37 37 37 36 36 35 35 34 33 32 32 32 31 31
38 38 37 37 37 37 37 37 37 36 36 35 34 34 34 35 35 35 34 34 34 34 34 34 34 35 36 38 39 40 41 41 39 39 38 39 39 38 38 38 38 38 37 36 36 35 34 33 32 31 31 31
40 40 39 38 38 38 39 39 39 39 38 38 37 36 36 36 36 36 36 36 36 36 36 36 36 36 37 38 39 40 40 40 40 39 40 40 40 39 39 39 38 38 38 37 37 36 35 34 33 32 32 31
41 41 40 40 40 40 40 40 41 41 41 40 39 39 38 38 37 37 37 37 38 38 38 38 37 38 38 39 39 40 40 40 40 40 40 40 40 40 40 39 38 39 38 38 37 37 36 35 35 34 33 32
42 42 42 42 42 42 42 42 42 43 43 41 40 40 40 40 39 39 39 39 39 39 39 39 39 39 39 39 39 39 39 40 40 40 40 40 40 40 40 39 39 38 39 38 38 37 37 36 36 35 34 34
41 42 42 43 43 43 43 43 43 44 44 44 42 41 41 41 41 40 39 39 39 40 40 39 39 39 39 39 39 39 39 40 40 41 41 40 41 41 40 39 39 39 39 39 38 38 38 38 37 36 36 35
39 40 41 42 42 42 42 42 43 44 44 44 43 42 41 41 41 40 40 40 39 39 40 40 39 39 40 40 39 39 39 40 40 41 41 41 41 41 40 39 39 40 40 40 40 39 39 39 39 38 37 36
38 39 39 40 41 41 41 41 42 43 43 43 42 42 42 42 41 41 40 40 39 39 39 40 40 40 40 40 40 39 40 40 41 41 41 41 41 41 40 41 41 41 41 41 41 41 40 40 40 39 38 38
37 37 38 39 39 40 40 41 42 42 43 42 41 41 41 42 41 41 41 41 41 40 40 40 40 41 41 41 41 40 40 40 41 42 42 42 42 42 42 42 42 42 42 42 42 42 42 42 41 40 40 39
36 36 37 38 38 39 40 40 42 42 42 41 41 41 41 42 42 41 41 42 42 42 41 41 42 42 42 43 42 42 41 42 42 43 43 43 43 44 44 43 43 43 43 43 43 43 43 43 43 42 42 41
35 36 37 37 38 38 39 40 41 42 42 42 41 42 42 43 43 42 42 43 43 43 43 43 44 44 44 44 44 44 44 44 44 45 45 45 45 45 45 45 45 45 45 45 45 45 45 45 45 44 44 43
34 35 36 37 37 38 38 39 40 42 43 43 43 43 44 44 44 44 44 44 45 45 46 46 46 46 46 46 46 46 46 46 46 47 47 47 47 47 47 47 47 47 47 48 48 48 48 47 47 46 46 45
34 34 35 36 37 37 37 38 39 41 43 44 44 45 45 46 47 47 47 47 48 48 49 49 49 49 50 50 50 50 50 49 49 49 49 50 50 50 49 49 49 50 50 51 51 51 50 50 49 49 48 48
35 36 36 37 38 38 39 40 41 42 43 44 45 45 46 47 47 48 48 48 49 49 49 50 50 51 52 52 53 54 54 54 53 53 53 53 53 53 52 51 51 52 53 54 54 54 53 52 52 52 51 50
37 38 39 40 41 41 42 43 44 44 45 45 45 46 46 46 46 47 47 47 47 47 47 48 48 48 49 50 52 53 55 55 56 56 57 57 57 57 57 56 56 56 57 58 58 58 57 56 55 54 53 52
39 40 41 42 42 43 43 44 45 46 46 46 47 47 47 47 48 48 47 47 47 47 47 47 46 46 46 47 49 50 51 52 53 55 56 57 58 59 59 59 59 59 60 61 62 62 62 61 59 56 54 53
42 43 44 45 46 47 47 48 49 49 50 50 50 50 50 50 51 51 50 50 50 49 49 49 48 47 47 47 48 48 49 49 50 51 52 53 55 56 57 58 58 58 58 60 61 63 63 62 61 58 55 52
46 47 49 50 51 51 52 53 53 53 53 53 53 53 52 52 52 52 52 52 52 52 52 51 50 49 49 49 49 49 50 50 50 51 51 51 52 52 54 54 54 54 53 54 55 57 59 59 58 57 55 53
49 51 52 53 53 53 54 54 54 54 54 54 54 54 53 53 52 52 52 52 52 53 53 53 52 51 51 51 51 51 51 51 52 52 52 52 52 52 53 53 53 52 51 51 51 52 54 55 56 56 55 55
49 49 50 50 51 51 51 52 52 52 52 52 52 52 51 51 51 51 51 51 52 52 53 53 53 53 53 52 52 52 52 53 53 53 53 53 53 53 54 54 54 54 52 51 50 50 52 53 54 55 55 55
Wind_Direction
274 275 275 274 275 275 275 276 276 277 277 277 278 277 275 273 271 269 267 266 264 262 261 261 261 261 262 263 263 262 261 260 259 259 259 259 259 259 259 259 259 259 260 263 265 265 265 265 266 268 270 271
277 276 275 275 275 275 276 276 276 275 275 275 274 273 271 269 267 265 264 264 263 261 260 260 259 259 260 261 261 259 258 257 256 256 256 256 257 257 257 257 257 256 256 257 258 260 261 260 260 262 264 266
279 278 278 278 278 278 278 277 275 275 274 273 272 271 269 267 266 264 263 263 262 261 260 259 259 258 258 258 258 258 256 255 255 255 255 255 255 255 256 256 255 255 254 253 253 254 256 258 259 258 259 261
280 280 281 280 280 279 277 276 275 275 274 273 272 271 269 267 266 265 264 263 262 261 260 260 259 258 257 256 257 256 255 254 254 253 253 254 254 254 254 254 254 253 252 251 251 251 251 253 256 257 257 257
281 281 280 280 279 277 276 276 276 275 273 272 271 269 268 267 267 265 263 262 262 263 262 261 260 258 257 256 256 256 255 254 253 252 252 252 253 253 252 252 251 251 250 249 249 249 249 249 251 253 255 255
279 279 279 279 277 277 276 276 274 272 270 269 268 267 267 267 266 264 263 263 263 263 262 262 261 259 258 257 256 255 254 254 253 252 251 251 251 251 250 249 249 249 248 248 247 247 248 248 248 249 252 254
277 277 277 276 276 275 274 272 270 268 268 267 266 266 266 267 267 267 266 265 263 262 261 261 261 260 259 257 255 254 253 252 252 251 250 249 249 248 247 247 246 247 247 247 247 247 247 248 248 249 250 252
274 274 272 271 271 271 270 269 268 267 266 265 264 265 267 269 270 270 269 267 265 263 261 261 260 259 258 257 254 253 252 251 250 250 249 248 247 246 245 245 245 245 246 246 247 248 249 250 251 251 252 253
269 269 268 266 266 266 266 266 265 265 264 264 265 267 269 270 270 270 270 268 266 264 262 260 259 258 256 255 254 252 252 250 249 249 249 248 247 247 246 245 245 246 246 247 247 249 250 252 253 254 254 255
268 267 267 267 267 266 266 266 265 265 264 265 267 268 268 268 268 268 268 267 265 262 260 258 256 255 253 253 253 252 251 251 250 249 249 249 249 248 248 248 248 248 248 249 249 250 251 252 253 254 255 255
270 269 269 270 270 269 268 269 269 269 268 267 266 265 265 266 268 268 267 266 264 262 260 257 255 254 253 252 252 251 250 250 250 249 250 250 250 250 250 250 250 250 250 251 252 253 254 254 254 255 254 254
271 270 270 270 270 270 270 270 270 269 268 266 265 264 265 267 269 270 270 268 267 265 264 262 260 257 256 254 253 251 250 250 249 250 250 251 252 252 252 252 253 253 252 253 253 254 255 255 256 256 256 255
271 270 269 269 270 270 270 270 270 269 268 267 266 266 268 270 272 273 272 271 270 269 268 266 264 262 259 257 255 253 252 251 251 251 251 251 253 254 254 255 255 256 256 255 255 255 255 255 255 255 255 256
268 269 269 269 269 269 270 270 271 271 271 271 271 271 271 272 273 274 273 272 271 270 270 269 267 265 262 260 258 256 255 254 253 252 252 253 254 255 256 257 258 259 259 259 259 258 257 256 255 254 253 253
266 267 267 268 268 268 269 270 272 272 273 274 274 275 274 274 275 275 275 275 274 273 273 272 270 268 265 263 261 260 258 257 256 255 254 255 256 257 258 259 260 261 261 261 262 261 260 259 257 256 254 252
268 268 269 269 269 269 270 271 272 273 274 275 276 277 277 278 278 277 277 277 277 277 277 276 274 272 269 267 264 263 261 260 259 258 257 257 258 259 259 260 261 262 262 263 263 263 263 262 261 259 257 255
271 271 272 273 273 273 273 274 274 276 277 277 277 278 279 280 281 280 279 279 279 279 278 278 276 274 272 270 267 265 264 262 261 260 260 260 260 260 261 261 262 262 263 263 263 263 264 263 263 262 260 259
272 272 272 273 274 275 275 276 276 277 278 279 280 280 280 281 282 282 281 280 279 279 279 278 277 275 273 271 269 267 265 264 263 262 262 262 262 262 262 261 261 262 262 263 264 264 264 264 264 263 262 261
272 271 271 272 273 274 275 275 276 277 278 279 280 281 281 282 282 282 281 280 279 278 277 277 276 274 273 272 270 268 267 266 265 264 263 263 262 261 261 261 261 262 263 263 264 265 265 265 266 265 264 264
272 271 271 272 273 273 274 275 276 277 278 279 279 280 280 281 281 280 280 279 279 277 276 275 274 273 273 272 270 269 268 268 267 265 264 264 263 262 261 261 262 262 263 263 264 265 266 266 267 267 266 266
272 272 271 272 272 273 274 275 275 276 277 277 278 278 279 279 279 278 278 278 278 277 276 275 274 273 272 272 271 271 270 269 268 267 266 265 264 264 263 262 262 262 263 263 264 265 266 267 267 268 268 268
271 271 271 271 271 272 273 274 275 275 276 276 276 277 277 278 278 278 277 277 277 277 277 276 275 274 273 273 272 272 271 270 269 269 268 266 266 266 265 264 264 264 264 264 265 265 266 267 268 269 269 269
271 271 271 271 272 272 273 274 275 277 277 278 278 278 279 279 279 279 279 279 278 278 278 277 276 276 275 274 273 273 272 271 271 270 270 269 268 267 267 267 266 266 266 265 266 266 266 267 268 269 270 270
271 271 271 271 272 273 274 276 277 279 280 281 282 282 282 282 283 283 282 282 281 281 280 279 279 278 277 276 275 274 273 272 272 271 270 270 269 269 268 269 269 269 269 267 267 267 267 268 269 269 270 271
274 273 273 273 274 275 276 277 278 280 281 282 283 284 284 284 284 285 285 284 284 283 282 281 280 279 278 277 276 275 274 273 273 272 271 270 270 269 269 269 270 271 271 270 269 269 268 269 270 271 272 272
279 278 279 279 279 280 281 282 282 283 284 285 285 286 286 286 286 286 286 285 285 284 284 283 282 280 279 278 277 276 275 274 273 272 271 271 270 270 270 270 270 271 272 271 272 271 270 270 270 271 273 272
286 286 286 287 287 288 288 289 289 289 289 289 289 289 289 289 288 288 287 287 286 285 285 284 283 282 280 279 277 276 275 274 273 272 271 271 270 270 270 270 270 271 272 272 272 272 272 272 271 270 270 270
293 292 293 293 292 292 292 293 292 292 292 292 291 290 290 289 289 288 288 287 286 285 284 284 283 282 280 278 277 276 275 274 273 273 272 271 271 270 269 269 269 270 270 271 271 271 271 272 271 270 268 266
293 293 293 293 293 292 292 292 292 292 291 291 291 290 289 288 287 287 286 285 284 283 283 282 281 280 278 276 275 275 275 274 273 272 272 271 271 270 270 269 268 268 268 269 270 270 270 270 269 268 268 266
291 291 291 292 291 291 291 291 291 291 291 290 290 289 289 288 287 286 285 284 282 282 281 280 279 278 276 275 274 273 273 273 272 272 271 270 270 270 269 269 268 267 267 267 268 269 269 269 269 268 267 267
293 293 293 293 293 292 292 291 291 291 291 290 290 289 289 288 287 286 285 284 282 281 280 279 278 277 276 274 273 272 271 271 270 270 270 269 269 269 269 269 268 268 267 266 266 267 267 268 269 269 268 267
Height
3139 3139 3138 3138 3138 3137 3137 3137 3136 3135 3134 3134 3134 3133 3133 3133 3133 3132 3132 3132 3132 3132 3132 3133 3133 3134 3134 3134 3134 3134 3134 3135 3135 3134 3135 3135 3135 3135 3135 3135 3135 3135 3135 3134 3134 3134 3134 3135 3135 3135 3135 3135
3136 3136 3135 3135 3135 3135 3134 3134 3133 3133 3132 3132 3131 3131 3130 3130 3130 3130 3130 3130 3129 3129 3130 3130 3131 3131 3131 3131 3131 3131 3132 3132 3132 3132 3132 3132 3132 3132 3132 3132 3132 3132 3132 3132 3132 3131 3132 3132 3132 3133 3133 3133
3132 3132 3132 3132 3132 3132 3131 3131 3130 3130 3130 3129 3129 3128 3128 3127 3127 3128 3128 3127 3127 3127 3127 3127 3128 3128 3128 3128 3128 3129 3129 3129 3129 3129 3129 3129 3129 3129 3129 3129 3129 3129 3129 3129 3129 3129 3129 3129 3129 3130 3130 3130
3130 3130 3130 3129 3129 3129 3128 3128 3127 3127 3127 3126 3126 3126 3125 3124 3125 3125 3125 3124 3123 3123 3124 3125 3125 3125 3125 3126 3125 3125 3126 3126 3126 3126 3126 3126 3126 3126 3126 3126 3126 3126 3126 3126 3126 3126 3127 3126 3126 3127 3127 3128
3128 3127 3127 3127 3126 3126 3125 3125 3125 3125 3124 3124 3124 3123 3122 3122 3122 3122 3122 3121 3121 3121 3121 3121 3121 3122 3122 3122 3122 3122 3122 3123 3123 3123 3123 3123 3123 3123 3123 3123 3123 3123 3123 3123 3123 3124 3124 3124 3124 3124 3124 3125
3125 3124 3124 3124 3123 3123 3122 3122 3122 3122 3121 3121 3121 3120 3118 3119 3119 3118 3118 3118 3118 3118 3118 3118 3118 3118 3118 3119 3119 3119 3119 3119 3119 3119 3120 3120 3120 3120 3120 3120 3120 3120 3120 3120 3120 3121 3121 3121 3121 3121 3122 3122
3122 3122 3122 3121 3120 3120 3120 3119 3119 3119 3119 3118 3118 3116 3116 3115 3115 3115 3115 3115 3115 3115 3115 3115 3115 3115 3115 3115 3116 3115 3116 3116 3116 3116 3116 3117 3117 3117 3117 3117 3117 3117 3117 3117 3117 3118 3118 3118 3118 3119 3119 3119
3120 3119 3119 3118 3118 3117 3117 3117 3116 3116 3116 3115 3114 3114 3113 3113 3112 3112 3112 3112 3112 3112 3112 3112 3112 3112 3112 3112 3112 3112 3112 3112 3113 3113 3113 3113 3114 3114 3114 3114 3114 3114 3114 3114 3114 3114 3115 3115 3115 3115 3116 3116
3117 3116 3116 3116 3115 3114 3114 3113 3112 3112 3113 3112 3112 3112 3111 3110 3109 3109 3108 3109 3109 3110 3110 3110 3110 3109 3109 3108 3108 3109 3109 3109 3109 3109 3109 3110 3110 3110 3110 3110 3110 3111 3111 3111 3111 3111 3111 3111 3111 3111 3112 3112
3113 3113 3112 3111 3111 3111 3110 3109 3109 3109 3110 3110 3110 3109 3107 3106 3105 3105 3105 3105 3106 3106 3106 3106 3106 3105 3105 3105 3105 3105 3105 3105 3105 3105 3105 3106 3106 3106 3106 3106 3106 3107 3107 3107 3107 3107 3107 3107 3107 3107 3108 3108
3108 3109 3108 3108 3107 3107 3106 3106 3106 3106 3107 3107 3106 3104 3103 3102 3101 3102 3101 3101 3102 3102 3102 3102 3101 3101 3101 3101 3101 3101 3101 3101 3101 3101 3102 3102 3101 3102 3102 3102 3102 3102 3102 3103 3103 3103 3103 3103 3103 3103 3103 3104
3105 3105 3105 3104 3103 3103 3102 3102 3102 3102 3102 3102 3101 3099 3098 3098 3097 3098 3098 3098 3098 3098 3098 3098 3098 3097 3097 3097 3096 3096 3096 3096 3097 3097 3098 3097 3097 3097 3097 3097 3097 3097 3098 3098 3098 3098 3098 3098 3098 3098 3098 3099
3101 3101 3102 3101 3100 3099 3098 3098 3097 3096 3096 3096 3096 3096 3095 3094 3094 3094 3094 3094 3094 3094 3094 3094 3093 3093 3093 3092 3092 3092 3091 3092 3093 3094 3093 3092 3092 3092 3092 3092 3092 3092 3093 3093 3093 3093 3093 3094 3094 3094 3094 3094
3098 3098 3098 3098 3097 3096 3094 3093 3092 3092 3092 3092 3092 3092 3092 3091 3091 3090 3089 3089 3089 3089 3089 3089 3089 3089 3088 3088 3087 3088 3088 3088 3089 3089 3088 3087 3087 3088 3087 3087 3087 3087 3087 3087 3088 3088 3088 3089 3089 3089 3090 3090
3095 3094 3094 3094 3093 3092 3091 3090 3089 3088 3088 3088 3088 3087 3087 3087 3087 3086 3085 3085 3085 3084 3084 3084 3084 3084 3083 3083 3083 3083 3084 3084 3084 3083 3083 3083 3083 3082 3082 3083 3082 3082 3082 3082 3082 3082 3082 3083 3083 3084 3084 3085
3092 3092 3091 3090 3090 3089 3088 3087 3085 3084 3084 3085 3084 3083 3082 3082 3082 3082 3081 3081 3080 3079 3079 3079 3079 3078 3078 3078 3078 3079 3079 3079 3078 3078 3078 3078 3078 3078 3078 3078 3078 3077 3077 3077 3077 3077 3077 3077 3078 3078 3079 3079
3091 3090 3089 3088 3087 3086 3085 3084 3083 3081 3081 3080 3080 3080 3078 3078 3078 3077 3077 3077 3076 3075 3074 3074 3074 3073 3073 3073 3073 3074 3074 3073 3073 3073 3073 3073 3072 3072 3073 3073 3073 3073 3072 3072 3072 3072 3072 3072 3072 3073 3073 3074
3089 3088 3087 3085 3084 3083 3082 3081 3079 3078 3077 3076 3076 3076 3075 3074 3074 3073 3073 3072 3072 3071 3070 3070 3069 3068 3068 3068 3069 3069 3069 3068 3068 3067 3067 3067 3067 3068 3068 3068 3068 3067 3067 3067 3067 3067 3067 3067 3067 3068 3068 3068
3086 3085 3084 3082 3081 3080 3078 3077 3076 3075 3074 3073 3072 3072 3071 3070 3070 3069 3068 3068 3068 3067 3066 3066 3065 3064 3064 3064 3064 3064 3064 3064 3063 3062 3062 3062 3062 3062 3062 3062 3062 3061 3061 3062 3062 3062 3062 3062 3062 3062 3063 3063
3084 3082 3081 3080 3078 3077 3075 3074 3073 3072 3071 3070 3069 3068 3067 3067 3067 3066 3064 3064 3064 3063 3063 3062 3061 3060 3060 3059 3059 3059 3059 3059 3058 3057 3057 3057 3056 3056 3056 3056 3056 3056 3056 3056 3056 3056 3056 3057 3057 3057 3057 3058
3081 3080 3078 3077 3075 3074 3072 3070 3069 3069 3068 3067 3066 3065 3064 3063 3062 3062 3061 3060 3059 3059 3058 3058 3057 3056 3055 3055 3055 3055 3054 3053 3052 3052 3051 3051 3051 3050 3050 3051 3050 3050 3050 3050 3050 3051 3051 3051 3051 3052 3052 3052
3079 3077 3075 3074 3072 3071 3069 3067 3066 3065 3064 3063 3062 3061 3060 3059 3058 3058 3057 3056 3055 3054 3053 3053 3052 3051 3051 3050 3050 3049 3049 3048 3047 3046 3046 3046 3046 3045 3044 3045 3045 3044 3044 3044 3044 3045 3045 3046 3046 3046 3046 3047
3076 3074 3073 3071 3069 3068 3066 3064 3063 3061 3060 3059 3058 3057 3056 3055 3054 3053 3053 3051 3051 3050 3049 3048 3047 3047 3046 3045 3044 3044 3043 3042 3042 3041 3040 3039 3040 3039 3039 3038 3038 3038 3038 3038 3038 3038 3039 3040 3040 3040 3040 3041
3073 3072 3070 3068 3066 3065 3063 3061 3060 3058 3056 3055 3054 3053 3051 3050 3049 3048 3047 3046 3045 3044 3043 3043 3042 3041 3041 3039 3038 3038 3037 3037 3036 3035 3034 3034 3033 3033 3033 3033 3032 3031 3030 3031 3031 3031 3032 3033 3033 3034 3034 3034
3071 3069 3067 3066 3064 3062 3060 3059 3057 3055 3053 3051 3050 3048 3047 3045 3044 3042 3041 3040 3039 3038 3037 3036 3036 3035 3034 3033 3032 3031 3030 3030 3029 3028 3028 3027 3027 3026 3027 3027 3026 3024 3023 3023 3023 3024 3025 3026 3026 3027 3027 3028
3068 3066 3064 3062 3060 3059 3057 3055 3053 3051 3049 3047 3045 3043 3042 3040 3038 3037 3036 3034 3033 3032 3030 3030 3029 3029 3028 3026 3024 3024 3023 3022 3022 3021 3020 3020 3020 3020 3019 3020 3019 3018 3016 3015 3015 3015 3017 3019 3020 3020 3020 3020
3064 3062 3060 3058 3056 3054 3052 3050 3048 3046 3044 3042 3040 3038 3036 3034 3032 3031 3030 3028 3027 3025 3024 3023 3023 3022 3021 3019 3017 3017 3016 3015 3014 3013 3013 3012 3012 3012 3012 3012 3012 3011 3010 3008 3008 3007 3007 3009 3010 3013 3013 3013
3060 3058 3055 3053 3051 3048 3046 3044 3042 3040 3038 3036 3034 3032 3030 3028 3025 3024 3023 3021 3020 3018 3017 3016 3016 3015 3014 3012 3011 3010 3009 3008 3007 3006 3006 3005 3004 3004 3004 3004 3004 3004 3002 3001 3000 2999 2999 3000 3000 3002 3004 3006
3055 3053 3050 3048 3045 3043 3040 3038 3035 3033 3031 3029 3027 3025 3023 3021 3018 3017 3015 3014 3012 3010 3009 3009 3009 3008 3006 3005 3004 3003 3001 3001 3000 2999 2999 2997 2997 2996 2995 2996 2997 2997 2996 2994 2993 2991 2991 2991 2991 2992 2994 2996
3049 3046 3044 3041 3038 3036 3033 3031 3029 3026 3024 3022 3020 3018 3016 3013 3011 3009 3008 3006 3004 3002 3001 3001 3001 3000 2998 2997 2996 2995 2994 2993 2992 2992 2991 2990 2990 2989 2988 2987 2988 2989 2989 2988 2987 2985 2984 2983 2983 2984 2985 2985
3043 3040 3037 3034 3031 3029 3026 3024 3021 3019 3017 3015 3012 3010 3008 3006 3003 3001 3000 2998 2996 2994 2993 2993 2992 2991 2990 2988 2987 2987 2986 2985 2984 2984 2983 2983 2982 2981 2981 2980 2980 2980 2981 2981 2981 2980 2978 2977 2976 2976 2976 2976